Date String (YYYY-MM-DD hh:mm:ss) UTC,Instrument flags,Ambient pressure (hPa),Sample flow (lpm),Bypass flow (lpm),Sample temperature (°C),Ambient temperature (°C),ASC tube jacket temperature (°C),LED temperature (°C),Box temperature (°C),Sample RH (%),Span deviation,Mass concentration (μg/m³),Mass concentration (μg/m³),Mass concentration (μg/m³)
DateTimeUTC,F1_M11,P_M11,Q1_M11,Q2_M11,T1_M11,T2_M11,T3_M11,T4_M11,T5_M11,U1_M11,ZSPAN_M11,X0_M11,X2_M11,X1_M11
2022-11-28 13:00:00,,0812.4,5.02,0.00,22.0,20.7,00.0,30.9,23.9,07.7,0000.0,0000.57,0000.45,0000.42
2022-11-28 13:01:00,,0812.4,4.99,0.00,22.0,20.7,00.0,30.9,23.9,08.0,0000.0,0000.56,0000.45,0000.42
2022-11-28 13:02:00,,0812.5,4.99,0.00,22.0,20.8,00.0,30.9,23.9,07.8,0000.0,0000.56,0000.45,0000.42
2022-11-28 13:03:00,,0812.5,5.00,0.00,22.0,20.8,00.0,30.9,23.9,07.9,0000.0,0000.57,0000.46,0000.43
2022-11-28 13:04:00,,0812.5,5.00,0.00,22.0,20.8,00.0,30.9,23.9,08.0,0000.0,0000.72,0000.50,0000.44
2022-11-28 13:05:00,,0812.5,5.00,0.00,22.0,20.8,00.0,30.9,23.9,08.2,0000.0,0000.78,0000.51,0000.45
2022-11-28 13:06:00,,0812.6,5.01,0.00,22.0,20.8,00.0,30.9,23.9,08.0,0000.0,0000.84,0000.53,0000.44
2022-11-28 13:07:00,,0812.6,5.00,0.00,22.0,20.8,00.0,30.9,23.9,07.8,0000.0,0000.87,0000.54,0000.45
2022-11-28 13:08:00,,0812.4,5.00,0.00,22.0,20.8,00.0,30.9,23.9,07.9,0000.0,0000.88,0000.55,0000.46
2022-11-28 13:09:00,,0812.3,4.99,0.00,22.0,20.8,00.0,30.9,23.9,07.8,0000.0,0000.92,0000.56,0000.46
2022-11-28 13:10:00,,0812.4,4.99,0.00,22.0,20.7,00.0,30.9,23.9,07.6,0000.0,0000.98,0000.59,0000.46
2022-11-28 13:11:00,,0812.6,4.99,0.00,22.0,20.7,00.0,30.9,23.8,07.6,0000.0,0001.03,0000.61,0000.46
2022-11-28 13:12:00,,0812.7,5.00,0.00,22.0,20.7,00.0,30.9,23.8,08.0,0000.0,0001.03,0000.61,0000.46
2022-11-28 13:13:00,,0812.6,5.01,0.00,22.0,20.6,00.0,30.9,23.9,08.0,0000.0,0001.03,0000.62,0000.46
2022-11-28 13:14:00,,0812.6,5.00,0.00,22.0,20.6,00.0,30.9,23.9,07.9,0000.0,0001.04,0000.62,0000.47
2022-11-28 13:15:00,,0812.5,4.98,0.00,22.0,20.6,00.0,30.9,23.8,07.8,0000.0,0000.94,0000.61,0000.47
2022-11-28 13:16:00,,0812.5,5.01,0.00,22.0,20.7,00.0,30.9,23.9,07.7,0000.0,0000.90,0000.60,0000.47
2022-11-28 13:17:00,,0812.6,5.01,0.00,22.0,20.7,00.0,30.9,23.9,07.9,0000.0,0000.94,0000.60,0000.48
2022-11-28 13:18:00,,0812.7,4.99,0.00,22.0,20.6,00.0,30.9,23.9,07.9,0000.0,0000.91,0000.59,0000.47
2022-11-28 13:19:00,,0812.5,5.00,0.00,22.0,20.6,00.0,30.9,23.8,07.8,0000.0,0000.91,0000.58,0000.47
2022-11-28 13:20:00,,0812.6,5.01,0.00,22.0,20.7,00.0,30.9,23.8,07.6,0000.0,0000.88,0000.58,0000.47
2022-11-28 13:21:00,,0812.7,5.01,0.00,22.0,20.7,00.0,30.9,23.9,07.7,0000.0,0000.86,0000.56,0000.47
2022-11-28 13:22:00,,0812.6,4.98,0.00,22.0,20.7,00.0,30.9,23.9,07.8,0000.0,0000.82,0000.54,0000.47
2022-11-28 13:23:00,,0812.5,5.00,0.00,22.0,20.8,00.0,30.9,23.9,07.6,0000.0,0000.82,0000.54,0000.47
2022-11-28 13:24:00,,0812.5,5.01,0.00,22.0,20.8,00.0,30.9,23.9,07.4,0000.0,0000.83,0000.54,0000.47
2022-11-28 13:25:00,,0812.5,5.01,0.00,22.0,20.8,00.0,30.9,23.9,07.4,0000.0,0000.84,0000.54,0000.47
2022-11-28 13:26:00,,0812.5,4.99,0.00,22.0,20.7,00.0,30.9,23.9,07.5,0000.0,0000.80,0000.53,0000.46
2022-11-28 13:27:00,,0812.5,4.99,0.00,22.0,20.7,00.0,30.9,23.9,07.5,0000.0,0000.81,0000.53,0000.46
2022-11-28 13:28:00,,0812.5,5.00,0.00,22.0,20.7,00.0,30.9,23.8,07.7,0000.0,0000.72,0000.52,0000.45
2022-11-28 13:29:00,,0812.5,5.01,0.00,22.0,20.6,00.0,30.9,23.8,07.7,0000.0,0000.76,0000.53,0000.46
2022-11-28 13:30:00,,0812.6,5.01,0.00,22.0,20.6,00.0,30.9,23.8,07.5,0000.0,0000.76,0000.52,0000.45
2022-11-28 13:31:00,,0812.6,5.00,0.00,22.0,20.6,00.0,30.9,23.9,07.5,0000.0,0000.76,0000.52,0000.45
2022-11-28 13:32:00,,0812.6,5.00,0.00,22.0,20.7,00.0,30.9,23.9,07.6,0000.0,0000.74,0000.51,0000.43
2022-11-28 13:33:00,,0812.7,5.00,0.00,22.0,20.7,00.0,30.9,23.8,07.7,0000.0,0000.75,0000.52,0000.43
2022-11-28 13:34:00,,0812.7,5.01,0.00,22.0,20.7,00.0,30.9,23.8,07.6,0000.0,0000.76,0000.52,0000.43
2022-11-28 13:35:00,,0812.7,5.00,0.00,22.0,20.7,00.0,30.9,23.8,07.6,0000.0,0000.76,0000.52,0000.43
2022-11-28 13:36:00,,0812.6,5.00,0.00,22.0,20.7,00.0,30.9,23.8,07.7,0000.0,0000.72,0000.51,0000.42
2022-11-28 13:37:00,,0812.5,5.00,0.00,22.0,20.7,00.0,30.9,23.8,07.7,0000.0,0000.75,0000.52,0000.42
2022-11-28 13:38:00,,0812.6,5.00,0.00,22.0,20.7,00.0,30.9,23.9,07.6,0000.0,0000.80,0000.53,0000.41
2022-11-28 13:39:00,,0812.6,4.99,0.00,22.0,20.7,00.0,30.9,23.9,07.6,0000.0,0000.84,0000.55,0000.41
2022-11-28 13:40:00,,0812.6,4.99,0.00,22.0,20.7,00.0,30.9,23.9,07.7,0000.0,0000.81,0000.53,0000.41
2022-11-28 13:41:00,,0812.5,5.01,0.00,22.0,20.7,00.0,30.9,23.9,07.7,0000.0,0000.78,0000.53,0000.41
2022-11-28 13:42:00,,0812.5,5.00,0.00,22.0,20.7,00.0,30.9,23.9,07.7,0000.0,0000.82,0000.54,0000.41
2022-11-28 13:43:00,,0812.5,5.01,0.00,22.0,20.7,00.0,30.9,23.9,07.7,0000.0,0000.86,0000.55,0000.42
2022-11-28 13:44:00,,0812.5,5.00,0.00,22.0,20.7,00.0,30.9,23.9,07.8,0000.0,0000.88,0000.56,0000.42
2022-11-28 13:45:00,,0812.7,5.00,0.00,22.0,20.7,00.0,30.9,23.9,07.8,0000.0,0000.89,0000.56,0000.42
2022-11-28 13:46:00,,0812.7,4.99,0.00,22.0,20.7,00.0,30.9,23.9,07.7,0000.0,0001.04,0000.57,0000.41
2022-11-28 13:47:00,,0812.7,4.99,0.00,22.0,20.7,00.0,30.9,23.9,07.9,0000.0,0001.23,0000.57,0000.41
2022-11-28 13:48:00,,0812.5,5.00,0.00,22.0,20.7,00.0,30.9,23.9,07.8,0000.0,0001.24,0000.58,0000.41
2022-11-28 13:49:00,,0812.5,5.01,0.00,22.0,20.8,00.0,30.9,23.9,07.8,0000.0,0001.22,0000.57,0000.42
2022-11-28 13:50:00,,0812.5,5.01,0.00,22.0,20.8,00.0,30.9,23.9,07.9,0000.0,0001.19,0000.56,0000.41
2022-11-28 13:51:00,,0812.5,5.00,0.00,22.0,20.7,00.0,30.9,23.9,07.9,0000.0,0001.19,0000.56,0000.41
2022-11-28 13:52:00,,0812.5,5.00,0.00,22.0,20.7,00.0,30.9,23.9,07.8,0000.0,0001.19,0000.56,0000.42
2022-11-28 13:53:00,,0812.6,4.99,0.00,22.0,20.7,00.0,30.9,23.9,07.8,0000.0,0001.17,0000.56,0000.41
2022-11-28 13:54:00,,0812.6,5.00,0.00,22.0,20.7,00.0,30.9,23.9,07.8,0000.0,0001.12,0000.53,0000.41
2022-11-28 13:55:00,,0812.5,5.00,0.00,22.0,20.7,00.0,30.9,23.9,07.9,0000.0,0001.11,0000.52,0000.41
2022-11-28 13:56:00,,0812.5,5.00,0.00,22.0,20.7,00.0,30.9,23.9,07.8,0000.0,0001.09,0000.52,0000.41
2022-11-28 13:57:00,,0812.5,5.00,0.00,22.0,20.8,00.0,30.9,23.9,07.7,0000.0,0000.96,0000.51,0000.41
2022-11-28 13:58:00,,0812.4,5.00,0.00,22.0,20.8,00.0,30.9,23.9,07.7,0000.0,0000.75,0000.51,0000.42
2022-11-28 13:59:00,,0812.5,5.01,0.00,22.0,20.8,00.0,30.9,23.9,07.8,0000.0,0000.72,0000.49,0000.41
